Date String (YYYY-MM-DD hh:mm:ss) UTC,Instrument flags,absolute air pressure of the measurement (hPa),sample flow rate (lpm),inlet stack bypass flow (lpm),air temperature of the measurement (°C),ambient temperature measured by the external sensor (°C),aerosol sample conditioner tube jacket temperature (°C),OPC LED temperature (°C),internal box temperature (°C),relative humidity of the measurement (%),span deviation,mass concentration of particles derived from Lorenz-Mie calculation of OPC scattering (μg/m³),mass concentration of particles derived from Lorenz-Mie calculation of OPC scattering (μg/m³),mass concentration of particles derived from Lorenz-Mie calculation of OPC scattering (μg/m³)
DateTimeUTC,F1_M11,P_M11,Q1_M11,Q2_M11,T1_M11,T2_M11,T3_M11,T4_M11,T5_M11,U1_M11,ZSPAN_M11,X2_M11,X0_M11,X1_M11
2024-04-18 07:00:00,SystemResetWarning,0832.8,4.99,000.00,024.6,023.7,000.0,033.4,026.5,018.5,0000.0,0002.00,0005.23,0001.69
2024-04-18 07:01:00,SystemResetWarning,0832.8,5.01,000.00,024.6,023.7,000.0,033.4,026.5,018.5,0000.0,0002.05,0004.97,0001.72
2024-04-18 07:02:00,SystemResetWarning,0832.8,5.01,000.00,024.6,023.6,000.0,033.3,026.5,018.5,0000.0,0002.08,0005.01,0001.74
2024-04-18 07:03:00,SystemResetWarning,0833.3,5.00,000.00,024.6,023.6,000.0,033.3,026.5,018.6,0000.0,0002.11,0005.35,0001.75
2024-04-18 07:04:00,SystemResetWarning,0833.2,5.00,000.00,024.6,023.6,000.0,033.3,026.5,018.6,0000.0,0002.09,0005.28,0001.75
2024-04-18 07:05:00,SystemResetWarning,0833.0,4.99,000.00,024.6,023.6,000.0,033.3,026.5,018.7,0000.0,0002.05,0003.26,0001.75
2024-04-18 07:06:00,SystemResetWarning,0833.1,5.01,000.00,024.5,023.6,000.0,033.3,026.5,018.7,0000.0,0002.03,0002.65,0001.76
2024-04-18 07:07:00,SystemResetWarning,0833.0,5.00,000.00,024.5,023.6,000.0,033.3,026.5,018.7,0000.0,0002.06,0002.69,0001.77
2024-04-18 07:08:00,SystemResetWarning,0833.0,5.01,000.00,024.5,023.5,000.0,033.3,026.4,018.8,0000.0,0002.05,0003.50,0001.77
2024-04-18 07:09:00,SystemResetWarning,0833.0,5.00,000.00,024.5,023.5,000.0,033.3,026.5,018.8,0000.0,0002.02,0003.94,0001.77
2024-04-18 07:10:00,SystemResetWarning,0832.9,5.00,000.00,024.5,023.5,000.0,033.3,026.4,018.9,0000.0,0002.03,0004.00,0001.79
2024-04-18 07:11:00,SystemResetWarning,0833.0,5.00,000.00,024.5,023.5,000.0,033.3,026.4,018.9,0000.0,0002.08,0004.00,0001.85
2024-04-18 07:12:00,SystemResetWarning,0832.9,4.99,000.00,024.5,023.5,000.0,033.3,026.4,018.9,0000.0,0002.12,0003.95,0001.92
2024-04-18 07:13:00,SystemResetWarning,0832.9,5.00,000.00,024.4,023.5,000.0,033.2,026.4,018.9,0000.0,0002.22,0004.05,0002.02
2024-04-18 07:14:00,SystemResetWarning,0832.9,5.00,000.00,024.4,023.4,000.0,033.2,026.4,018.9,0000.0,0002.33,0003.84,0002.14
2024-04-18 07:15:00,SystemResetWarning,0833.4,4.99,000.00,024.4,023.4,000.0,033.2,026.3,019.0,0000.0,0002.46,0003.98,0002.24
2024-04-18 07:16:00,SystemResetWarning,0833.3,5.00,000.00,024.4,023.5,000.0,033.2,026.3,019.0,0000.0,0002.56,0003.99,0002.35
2024-04-18 07:17:00,SystemResetWarning,0833.2,5.01,000.00,024.4,023.5,000.0,033.2,026.3,019.0,0000.0,0002.68,0004.69,0002.45
2024-04-18 07:18:00,SystemResetWarning,0833.3,5.01,000.00,024.4,023.4,000.0,033.2,026.4,019.1,0000.0,0002.76,0005.50,0002.53
2024-04-18 07:19:00,SystemResetWarning,0832.9,5.00,000.00,024.4,023.4,000.0,033.2,026.4,019.1,0000.0,0002.85,0004.93,0002.63
2024-04-18 07:20:00,SystemResetWarning,0833.0,5.00,000.00,024.4,023.5,000.0,033.2,026.3,019.1,0000.0,0002.95,0004.92,0002.73
2024-04-18 07:21:00,SystemResetWarning,0833.5,4.99,000.00,024.4,023.4,000.0,033.2,026.3,019.1,0000.0,0003.00,0004.85,0002.81
2024-04-18 07:22:00,SystemResetWarning,0833.0,4.99,000.00,024.4,023.4,000.0,033.2,026.3,019.2,0000.0,0003.03,0004.88,0002.84
2024-04-18 07:23:00,SystemResetWarning,0832.9,5.00,000.00,024.4,023.5,000.0,033.2,026.3,019.2,0000.0,0003.06,0006.08,0002.86
2024-04-18 07:24:00,SystemResetWarning,0833.1,4.99,000.00,024.4,023.5,000.0,033.1,026.3,019.1,0000.0,0003.05,0006.15,0002.87
2024-04-18 07:25:00,SystemResetWarning,0833.4,5.01,000.00,024.4,023.4,000.0,033.1,026.3,019.0,0000.0,0003.02,0006.08,0002.84
2024-04-18 07:26:00,SystemResetWarning,0833.2,5.01,000.00,024.4,023.4,000.0,033.1,026.3,019.0,0000.0,0002.94,0005.96,0002.79
2024-04-18 07:27:00,SystemResetWarning,0832.8,4.98,000.00,024.4,023.4,000.0,033.1,026.3,019.0,0000.0,0002.91,0005.99,0002.73
2024-04-18 07:28:00,SystemResetWarning,0832.7,4.99,000.00,024.3,023.4,000.0,033.1,026.3,018.9,0000.0,0002.87,0005.49,0002.69
2024-04-18 07:29:00,SystemResetWarning,0832.8,5.01,000.00,024.3,023.4,000.0,033.1,026.3,018.8,0000.0,0002.85,0004.73,0002.63
2024-04-18 07:30:00,SystemResetWarning,0833.2,5.01,000.00,024.3,023.4,000.0,033.1,026.3,018.8,0000.0,0002.80,0004.56,0002.55
2024-04-18 07:31:00,SystemResetWarning,0833.0,5.00,000.00,024.3,023.4,000.0,033.1,026.3,018.8,0000.0,0002.73,0004.10,0002.46
2024-04-18 07:32:00,SystemResetWarning,0833.0,5.00,000.00,024.3,023.4,000.0,033.1,026.3,018.7,0000.0,0002.68,0004.16,0002.39
2024-04-18 07:33:00,SystemResetWarning,0833.0,5.00,000.00,024.3,023.4,000.0,033.1,026.3,018.7,0000.0,0002.61,0004.19,0002.31
2024-04-18 07:34:00,SystemResetWarning,0833.1,4.99,000.00,024.3,023.4,000.0,033.1,026.3,018.7,0000.0,0002.56,0003.34,0002.23
2024-04-18 07:35:00,SystemResetWarning,0833.2,4.99,000.00,024.3,023.4,000.0,033.1,026.3,018.7,0000.0,0002.50,0003.00,0002.15
2024-04-18 07:36:00,SystemResetWarning,0833.5,5.01,000.00,024.3,023.4,000.0,033.0,026.2,018.7,0000.0,0002.43,0002.95,0002.08
2024-04-18 07:37:00,SystemResetWarning,0833.2,5.00,000.00,024.3,023.4,000.0,033.0,026.2,018.7,0000.0,0002.39,0002.93,0002.04
2024-04-18 07:38:00,SystemResetWarning,0833.0,5.01,000.00,024.3,023.3,000.0,033.0,026.2,018.6,0000.0,0002.36,0002.86,0002.04
2024-04-18 07:39:00,SystemResetWarning,0833.0,5.01,000.00,024.3,023.3,000.0,033.0,026.2,018.6,0000.0,0002.32,0002.77,0002.03
2024-04-18 07:40:00,SystemResetWarning,0833.4,5.00,000.00,024.3,023.3,000.0,033.0,026.2,018.6,0000.0,0002.26,0002.64,0002.02
2024-04-18 07:41:00,SystemResetWarning,0833.0,5.00,000.00,024.2,023.3,000.0,033.0,026.2,018.6,0000.0,0002.27,0002.67,0002.01
2024-04-18 07:42:00,SystemResetWarning,0833.0,5.00,000.00,024.2,023.3,000.0,033.0,026.2,018.5,0000.0,0002.25,0002.64,0002.00
2024-04-18 07:43:00,SystemResetWarning,0832.9,5.00,000.00,024.2,023.3,000.0,033.0,026.2,018.5,0000.0,0002.23,0002.55,0001.99
2024-04-18 07:44:00,SystemResetWarning,0833.0,4.99,000.00,024.2,023.3,000.0,033.0,026.2,018.5,0000.0,0002.22,0002.47,0001.97
2024-04-18 07:45:00,SystemResetWarning,0833.0,5.00,000.00,024.2,023.3,000.0,033.0,026.2,018.5,0000.0,0002.17,0002.35,0001.95
2024-04-18 07:46:00,SystemResetWarning,0832.9,5.00,000.00,024.2,023.3,000.0,033.0,026.1,018.4,0000.0,0002.14,0002.30,0001.93
2024-04-18 07:47:00,SystemResetWarning,0832.9,5.01,000.00,024.2,023.3,000.0,033.0,026.1,018.4,0000.0,0002.12,0002.28,0001.92
2024-04-18 07:48:00,SystemResetWarning,0832.9,5.01,000.00,024.2,023.3,000.0,033.0,026.1,018.4,0000.0,0002.10,0002.25,0001.90
2024-04-18 07:49:00,SystemResetWarning,0832.9,5.00,000.00,024.2,023.3,000.0,032.9,026.1,018.5,0000.0,0002.09,0002.35,0001.87
2024-04-18 07:50:00,SystemResetWarning,0832.9,4.99,000.00,024.2,023.3,000.0,032.9,026.1,018.5,0000.0,0002.05,0002.38,0001.83
2024-04-18 07:51:00,SystemResetWarning,0833.0,4.99,000.00,024.2,023.3,000.0,032.9,026.1,018.5,0000.0,0002.04,0002.40,0001.81
2024-04-18 07:52:00,SystemResetWarning,0833.0,5.00,000.00,024.2,023.3,000.0,032.9,026.1,018.5,0000.0,0002.00,0002.53,0001.80
2024-04-18 07:53:00,SystemResetWarning,0832.9,5.00,000.00,024.2,023.2,000.0,032.9,026.1,018.5,0000.0,0001.98,0002.46,0001.80
2024-04-18 07:54:00,SystemResetWarning,0832.9,5.00,000.00,024.1,023.2,000.0,032.9,026.1,018.6,0000.0,0001.95,0002.41,0001.78
2024-04-18 07:55:00,SystemResetWarning,0833.1,5.00,000.00,024.1,023.2,000.0,032.9,026.1,018.6,0000.0,0001.93,0002.38,0001.77
2024-04-18 07:56:00,SystemResetWarning,0832.9,5.00,000.00,024.1,023.2,000.0,032.9,026.1,018.6,0000.0,0001.89,0002.32,0001.75
2024-04-18 07:57:00,SystemResetWarning,0833.0,5.00,000.00,024.1,023.2,000.0,032.9,026.1,018.6,0000.0,0001.88,0002.27,0001.75
2024-04-18 07:58:00,SystemResetWarning,0833.0,5.00,000.00,024.1,023.2,000.0,032.9,026.1,018.6,0000.0,0001.86,0002.25,0001.73
2024-04-18 07:59:00,SystemResetWarning,0832.9,5.01,000.00,024.1,023.2,000.0,032.9,026.1,018.6,0000.0,0001.84,0002.28,0001.70
